Latest Coastal Weather Observations for Flinders Island Airport

IDT60701

Issued at 5:15 pm EST Wednesday 30 July 2014 (issued every 10 minutes, with the page automatically refreshed every 10 minutes)

About coastal observations | Map of coastal stations | Coastal observations for TAS | Marine services | Other Formats
Station Details ID: 099005 Name: FLINDERS ISLAND AIRPORT Lat: -40.09 Lon: 148.00 Height: 9.0 m
Data from the previous 72 hours. | See also: Recent months at Flinders Island Airport
Date/Time
EST
Temp

°C
Wind Pressure Rain
since 9am
mm
Weather Cloud Vis
km
Sea
Height
m
Swell
Dir
 
Speed
knots
Gust
knots
hPa Trend Height
m
Period
s
Dir
30/05:06pm 13.8 WNW 23 33 1004.4 - 0.2 - Partly cloudy 5 - - - -
30/05:02pm 14.0 WNW 22 33 1004.4 - 0.2 - Partly cloudy 5 - - - -
30/05:00pm 14.1 WNW 23 33 1004.3 - 0.2 - Partly cloudy 6 - - - -
30/04:36pm 14.6 WNW 24 34 1004.1 - 0.2 - Partly cloudy 10 - - - -
30/04:30pm 14.7 WNW 24 31 1004.0 - 0.2 - Partly cloudy 10 - - - -
30/04:11pm 14.7 WNW 22 32 1003.8 - 0.2 - Partly cloudy 10 - - - -
30/04:00pm 14.7 WNW 22 29 1003.9 - 0.2 - Partly cloudy 10 - - - -
30/03:56pm 14.7 WNW 22 32 1003.8 - 0.2 - Partly cloudy 10 - - - -
30/03:30pm 14.9 WNW 23 31 1004.1 - 0.2 - Partly cloudy 10 - - - -
30/03:01pm 15.3 WNW 21 33 1004.1 - 0.2 - Partly cloudy 10 - - - -
30/03:00pm 15.3 WNW 21 30 1004.1 - 0.2 Recent precip. Partly cloudy 10 - - - -
30/02:40pm 15.2 WNW 24 35 1004.2 - 0.2 - Partly cloudy 10 - - - -
30/02:30pm 15.1 WNW 23 30 1004.2 - 0.2 - Partly cloudy 10 - - - -
30/02:20pm 15.2 WNW 22 32 1004.3 - 0.0 - Partly cloudy 10 - - - -
30/02:00pm 15.0 WNW 23 31 1004.5 - 0.0 - Partly cloudy 10 - - - -
30/01:33pm 14.6 WNW 22 32 1004.8 - 0.0 - Partly cloudy 10 - - - -
30/01:30pm 14.7 WNW 23 32 1004.8 - 0.0 - Partly cloudy 10 - - - -
30/01:06pm 14.8 WNW 21 32 1005.2 - 0.0 - Partly cloudy 10 - - - -
30/01:00pm 14.5 WNW 21 30 1005.3 - 0.0 - Partly cloudy 10 - - - -
30/12:30pm 15.2 WNW 24 32 1005.4 - 0.0 - Partly cloudy 10 - - - -
30/12:22pm 14.9 WNW 25 35 1005.5 - 0.0 - Partly cloudy 10 - - - -
30/12:00pm 15.0 WNW 23 31 1006.0 - 0.0 - Mostly cloudy 10 - - - -
30/11:47am 15.0 WNW 22 33 1006.3 - 0.0 - Partly cloudy 10 - - - -
30/11:46am 15.0 WNW 22 31 1006.3 - 0.0 - Partly cloudy 10 - - - -
30/11:32am 15.0 WNW 22 32 1006.6 - 0.0 - Partly cloudy 10 - - - -
30/11:30am 15.0 WNW 23 32 1006.6 - 0.0 - Partly cloudy 10 - - - -
30/11:10am 15.4 WNW 21 34 1006.8 - 0.0 - Partly cloudy 10 - - - -
30/11:04am 14.7 WNW 23 34 1006.8 - 0.0 - Partly cloudy 10 - - - -
30/11:00am 14.5 WNW 22 30 1006.9 - 0.0 - Partly cloudy 10 - - - -
30/10:30am 13.7 WNW 20 28 1006.8 - 0.0 - Partly cloudy 10 - - - -
30/10:02am 12.1 WNW 23 33 1006.9 - 0.0 - Partly cloudy 8 - - - -
30/10:00am 12.2 WNW 24 33 1006.9 - 0.0 - Partly cloudy 7 - - - -
30/09:30am 14.2 WNW 23 33 1006.5 - 0.0 - Partly cloudy 10 - - - -
30/09:24am 13.7 WNW 19 30 1006.7 - 0.0 - Partly cloudy 10 - - - -
30/09:00am 13.8 WNW 19 27 1006.6 - 4.2 - - 10 - - - -
30/08:41am 13.8 WNW 15 25 1006.4 - 4.2 - - 10 - - - -
30/08:30am 13.4 WNW 15 20 1006.3 - 4.2 - - 10 - - - -
30/08:00am 13.3 WNW 18 23 1006.5 - 4.2 - Partly cloudy 10 - - - -
30/07:36am 13.3 WNW 17 27 1006.4 - 4.2 - Partly cloudy 9 - - - -
30/07:30am 13.2 WNW 17 21 1006.5 - 4.2 - Cloudy 9 - - - -
30/07:00am 13.0 WNW 15 21 1006.3 - 4.2 - Partly cloudy 9 - - - -
30/06:30am 13.2 W 19 27 1006.1 - 4.2 - - 9 - - - -
30/06:00am 13.0 W 20 29 1005.9 - 4.2 - Partly cloudy 10 - - - -
30/05:30am 13.3 W 22 29 1005.7 - 4.2 - - 10 - - - -
30/05:00am 13.1 W 21 27 1005.3 - 4.2 - Partly cloudy 9 - - - -
30/04:30am 13.2 W 21 28 1004.8 - 4.2 - Partly cloudy 10 - - - -
30/04:00am 13.4 W 25 32 1004.5 - 4.2 - Partly cloudy 9 - - - -
30/03:37am 13.4 W 25 35 1004.2 - 4.2 - Partly cloudy 9 - - - -
30/03:30am 13.3 W 26 34 1004.1 - 4.2 - Partly cloudy 10 - - - -
30/03:00am 13.6 WNW 24 34 1003.7 - 4.2 - Cloudy 9 - - - -
30/02:30am 13.5 W 28 40 1003.5 - 4.2 - Partly cloudy 10 - - - -
30/02:00am 13.2 W 32 42 1003.2 - 4.2 - Partly cloudy 9 - - - -
30/01:49am 13.5 W 31 41 1003.0 - 4.2 - Partly cloudy 5 - - - -
30/01:35am 13.9 WNW 26 38 1002.5 - 4.0 - Partly cloudy 9 - - - -
30/01:30am 13.9 WNW 25 34 1002.5 - 4.0 - Partly cloudy 9 - - - -
30/01:00am 14.1 WNW 24 36 1002.4 - 4.0 - Partly cloudy 9 - - - -
30/12:30am 14.0 WNW 27 37 1002.2 - 4.0 - - 10 - - - -
30/12:00am 13.9 WNW 27 37 1002.2 - 4.0 - Mostly clear 9 - - - -
 
Date/Time
EST
Temp

°C
Wind Pressure Rain
since 9am
mm
Weather Cloud Vis
km
Sea
Height
m
Swell
Dir
 
Speed
knots
Gust
knots
hPa Trend Height
m
Period
s
Dir
29/11:30pm 13.9 W 28 38 1002.1 - 4.0 - - 9 - - - -
29/11:00pm 14.1 W 33 44 1002.0 - 4.0 - Partly cloudy 8 - - - -
29/10:30pm 14.0 WNW 29 48 1002.0 - 4.0 - Partly cloudy 8 - - - -
29/10:02pm 14.1 W 31 42 1001.4 - 4.0 - Partly cloudy 8 - - - -
29/10:00pm 14.1 W 31 40 1001.4 - 4.0 - Partly cloudy 8 - - - -
29/09:30pm 13.8 WNW 26 36 1001.0 - 4.0 - Partly cloudy 8 - - - -
29/09:00pm 13.9 WNW 28 39 1000.5 - 4.0 Recent precip. Cloudy 8 - - - -
29/08:43pm 13.8 WNW 32 43 1000.6 - 4.0 - Partly cloudy 8 - - - -
29/08:38pm 13.7 WNW 32 43 1000.6 - 4.0 - Partly cloudy 8 - - - -
29/08:30pm 13.4 W 33 44 1000.7 - 4.0 - Partly cloudy 4 - - - -
29/08:22pm 14.0 WNW 34 47 1000.5 - 3.6 - Partly cloudy 5 - - - -
29/08:05pm 13.9 WNW 37 52 1000.2 - 3.2 - Partly cloudy 9 - - - -
29/08:00pm 14.1 WNW 38 52 1000.1 - 3.2 - Partly cloudy 10 - - - -
29/07:46pm 13.9 NW 35 49 999.3 - 3.2 - Partly cloudy 9 - - - -
29/07:30pm 13.6 NW 34 44 999.3 - 3.2 - Partly cloudy 9 - - - -
29/07:12pm 13.5 NW 33 44 999.2 - 3.2 - Partly cloudy 9 - - - -
29/07:00pm 13.3 NW 30 43 999.4 - 3.2 - Partly cloudy 5 - - - -
29/06:49pm 13.2 WNW 31 43 999.5 - 3.0 - Partly cloudy 4 - - - -
29/06:37pm 13.1 NW 32 42 999.4 - 2.4 - Partly cloudy 5 - - - -
29/06:34pm 13.2 NW 33 41 999.4 - 2.4 - Partly cloudy 5 - - - -
29/06:31pm 13.2 NW 32 45 999.3 - 2.4 - Partly cloudy 7 - - - -
29/06:30pm 13.1 NW 31 45 999.3 - 2.4 - Partly cloudy 8 - - - -
29/06:11pm 13.2 NW 32 44 999.3 - 2.2 - Partly cloudy 5 - - - -
29/06:07pm 13.2 NW 32 47 999.3 - 2.0 - Partly cloudy 6 - - - -
29/06:00pm 13.1 NW 31 42 999.2 - 2.0 Recent precip. Cloudy 9 - - - -
29/05:49pm 13.2 NW 33 49 999.1 - 2.0 - Partly cloudy 5 - - - -
29/05:32pm 13.1 NW 32 43 999.1 - 1.8 - Partly cloudy 10 - - - -
29/05:30pm 13.1 NW 32 43 999.1 - 1.8 - Partly cloudy 10 - - - -
29/05:14pm 13.1 NW 31 41 999.3 - 1.8 - Partly cloudy 5 - - - -
29/05:00pm 13.2 NW 31 41 999.2 - 1.6 - Partly cloudy 7 - - - -
29/04:30pm 13.5 NW 28 38 999.5 - 1.4 - Partly cloudy 8 - - - -
29/04:00pm 13.7 NW 30 42 999.6 - 1.4 - Partly cloudy 10 - - - -
29/03:30pm 13.3 NW 29 45 999.8 - 1.4 - Partly cloudy 6 - - - -
29/03:00pm 13.0 NW 29 42 999.5 - 1.0 Rain Cloudy 6 - - - -
29/02:37pm 13.0 NW 25 35 999.7 - 0.8 - Partly cloudy 7 - - - -
29/02:36pm 13.0 NW 25 35 999.7 - 0.8 - Partly cloudy 7 - - - -
29/02:30pm 13.0 WNW 26 35 999.8 - 0.8 - Partly cloudy 6 - - - -
29/02:12pm 13.3 NW 31 45 1000.0 - 0.0 - Partly cloudy 5 - - - -
29/02:00pm 14.3 NW 31 42 999.7 - 0.0 - Partly cloudy 10 - - - -
29/01:30pm 14.8 NW 29 39 999.5 - 0.0 - Partly cloudy 10 - - - -
29/01:00pm 14.9 NW 28 40 1000.0 - 0.0 - Partly cloudy 10 - - - -
29/12:30pm 14.9 NW 28 41 1000.5 - 0.0 - Partly cloudy 10 - - - -
29/12:00pm 14.6 NW 26 36 1001.0 - 0.0 - Mostly cloudy 10 - - - -
29/11:31am 14.7 NW 25 40 1001.6 - 0.0 - Partly cloudy 10 - - - -
29/11:30am 14.7 NW 25 33 1001.6 - 0.0 - Partly cloudy 10 - - - -
29/11:00am 14.6 NW 26 37 1002.1 - 0.0 - Partly cloudy 10 - - - -
29/10:30am 14.6 NW 24 35 1002.5 - 0.0 - Partly cloudy 10 - - - -
29/10:00am 14.5 NW 25 39 1003.0 - 0.0 - Partly cloudy 10 - - - -
29/09:30am 14.2 NW 22 32 1003.0 - 0.0 - Partly cloudy 10 - - - -
29/09:00am 13.5 NW 25 35 1002.9 - 0.8 Recent precip. Cloudy 10 - - - -
29/08:30am 13.2 NW 24 36 1003.1 - 0.8 - Cloudy 10 - - - -
29/08:03am 13.3 NW 22 32 1003.2 - 0.6 - Partly cloudy 10 - - - -
29/08:00am 13.4 NW 23 32 1003.2 - 0.6 - Partly cloudy 10 - - - -
29/07:30am 13.9 NNW 23 33 1003.6 - 0.6 - Partly cloudy 10 - - - -
29/07:11am 13.3 NNW 20 31 1003.7 - 0.6 - Partly cloudy 10 - - - -
29/07:00am 12.8 NNW 19 28 1003.7 - 0.6 - Partly cloudy 10 - - - -
29/06:32am 14.0 NW 20 30 1003.6 - 0.6 - Partly cloudy 10 - - - -
29/06:30am 13.9 NW 21 30 1003.6 - 0.6 - Partly cloudy 10 - - - -
29/06:00am 13.9 NW 20 28 1003.8 - 0.6 - Cloudy 10 - - - -
29/05:35am 14.1 NW 23 33 1003.9 - 0.6 - Cloudy 10 - - - -
29/05:30am 13.9 NW 24 33 1004.0 - 0.6 - Partly cloudy 10 - - - -
29/05:00am 13.8 NW 23 34 1004.3 - 0.6 - - 10 - - - -
29/04:36am 13.7 NW 22 32 1004.4 - 0.6 - - 10 - - - -
29/04:30am 13.8 NW 23 30 1004.5 - 0.6 - - 10 - - - -
29/04:02am 13.8 NW 19 29 1004.9 - 0.6 - Cloudy 10 - - - -
29/04:00am 13.7 NW 19 27 1005.0 - 0.6 - Cloudy 10 - - - -
29/03:48am 13.6 NW 19 29 1005.2 - 0.6 - Partly cloudy 10 - - - -
29/03:30am 12.9 NNW 15 24 1005.5 - 0.6 - Partly cloudy 10 - - - -
29/03:00am 12.8 NW 15 26 1006.1 - 0.4 Rain Cloudy 10 - - - -
29/02:34am 14.0 NW 18 28 1006.6 - 0.0 - Partly cloudy 10 - - - -
29/02:30am 13.9 NW 18 27 1006.6 - 0.0 - Partly cloudy 10 - - - -
29/02:00am 14.2 NW 20 30 1007.0 - 0.0 - Partly cloudy 10 - - - -
29/01:56am 14.3 NW 20 30 1007.0 - 0.0 - Partly cloudy 10 - - - -
29/01:30am 14.2 NW 20 28 1007.2 - 0.0 - Partly cloudy 10 - - - -
29/01:00am 14.4 NW 19 29 1007.5 - 0.0 - Partly cloudy 10 - - - -
29/12:59am 14.3 NW 19 29 1007.5 - 0.0 - Partly cloudy 10 - - - -
29/12:30am 14.4 NW 21 30 1007.8 - 0.0 - Partly cloudy 10 - - - -
29/12:00am 14.2 NW 19 32 1007.9 - 0.0 - Mostly cloudy 10 - - - -
 
Date/Time
EST
Temp

°C
Wind Pressure Rain
since 9am
mm
Weather Cloud Vis
km
Sea
Height
m
Swell
Dir
 
Speed
knots
Gust
knots
hPa Trend Height
m
Period
s
Dir
28/11:38pm 14.0 NNW 18 28 1007.8 - 0.0 - Partly cloudy 10 - - - -
28/11:30pm 14.0 NW 17 26 1007.9 - 0.0 - Partly cloudy 10 - - - -
28/11:00pm 14.4 NW 17 23 1008.5 - 0.0 - Partly cloudy 10 - - - -
28/10:30pm 14.5 NW 17 23 1008.4 - 0.0 - Partly cloudy 10 - - - -
28/10:18pm 14.3 NW 18 28 1008.5 - 0.0 - Partly cloudy 10 - - - -
28/10:00pm 14.1 NW 16 23 1008.9 - 0.0 - Partly cloudy 10 - - - -
28/09:30pm 13.7 NW 14 20 1008.9 - 0.0 - Partly cloudy 10 - - - -
28/09:00pm 14.0 NW 12 18 1009.3 - 0.0 - Cloudy 10 - - - -
28/08:30pm 14.3 NW 16 22 1009.2 - 0.0 - Partly cloudy 10 - - - -
28/08:00pm 13.9 WNW 14 19 1009.1 - 0.0 - Partly cloudy 10 - - - -
28/07:30pm 13.0 NW 12 16 1009.1 - 0.0 - - 10 - - - -
28/07:00pm 13.1 NW 11 16 1009.2 - 0.0 - - 10 - - - -
28/06:30pm 13.1 NW 12 14 1009.4 - 0.0 - - 10 - - - -
28/06:00pm 12.8 WNW 13 17 1009.3 - 0.0 - - 10 - - - -
28/05:30pm 13.1 WNW 16 21 1009.2 - 0.0 - - 10 - - - -
28/05:00pm 13.2 WNW 16 21 1009.5 - 0.0 - - 10 - - - -
28/04:30pm 13.7 WNW 15 24 1009.3 - 0.0 - - 10 - - - -
28/04:00pm 14.2 WNW 14 19 1009.5 - 0.0 - - 10 - - - -
28/03:30pm 14.6 WNW 18 23 1009.6 - 0.0 - - 10 - - - -
28/03:00pm 14.7 WNW 17 23 1009.7 - 0.0 - - 10 - - - -
28/02:30pm 15.2 WNW 18 24 1009.6 - 0.0 - - 10 - - - -
28/02:00pm 15.1 WNW 17 23 1009.7 - 0.0 - - 10 - - - -
28/01:57pm 15.1 WNW 17 27 1009.7 - 0.0 - - 10 - - - -
28/01:30pm 15.4 WNW 21 28 1009.9 - 0.0 - - 10 - - - -
28/01:00pm 15.4 WNW 20 27 1010.3 - 0.0 - Partly cloudy 10 - - - -
28/12:30pm 15.0 WNW 19 30 1010.8 - 0.0 - Partly cloudy 10 - - - -
28/12:21pm 15.0 WNW 19 30 1010.9 - 0.0 - Partly cloudy 10 - - - -
28/12:00pm 16.3 WNW 18 25 1011.2 - 0.0 - Mostly clear 10 - - - -
28/11:30am 15.7 NW 21 27 1011.5 - 0.0 - - 10 - - - -
28/11:00am 15.9 NW 20 28 1011.9 - 0.0 - Partly cloudy 10 - - - -
28/10:30am 15.5 NW 19 26 1012.1 - 0.0 - - 10 - - - -
28/10:00am 14.6 NW 20 26 1012.3 - 0.0 - Partly cloudy 10 - - - -
28/09:30am 15.1 WNW 20 27 1012.4 - 0.0 - Partly cloudy 10 - - - -
28/09:09am 14.6 WNW 20 30 1012.5 - 0.0 - Partly cloudy 10 - - - -
28/09:00am 14.6 WNW 20 28 1012.6 - 0.2 - Partly cloudy 10 - - - -
28/08:30am 14.5 NW 20 28 1012.6 - 0.2 - Cloudy 10 - - - -
28/08:00am 13.7 NW 20 28 1013.0 - 0.2 - Partly cloudy 10 - - - -
28/07:30am 13.6 NW 19 26 1013.1 - 0.2 - Partly cloudy 10 - - - -
28/07:00am 13.4 NW 20 28 1013.2 - 0.2 - - 10 - - - -
28/06:30am 13.3 NW 17 23 1012.7 - 0.2 - Partly cloudy 10 - - - -
28/06:00am 13.0 NW 15 19 1012.9 - 0.2 - Partly cloudy 10 - - - -
28/05:30am 13.1 NW 14 18 1013.0 - 0.2 - Partly cloudy 10 - - - -
28/05:00am 12.7 NW 15 20 1013.2 - 0.2 - - 10 - - - -
28/04:30am 12.6 NW 13 18 1013.4 - 0.2 - - 10 - - - -
28/04:00am 12.6 NW 13 19 1013.7 - 0.2 - - 10 - - - -
28/03:30am 12.5 NW 15 21 1013.8 - 0.2 - - 10 - - - -
28/03:00am 12.6 NW 15 19 1014.4 - 0.2 - - 10 - - - -
28/02:30am 12.6 NW 16 20 1014.6 - 0.2 - - 10 - - - -
28/02:00am 12.7 NW 16 21 1014.8 - 0.2 - - 10 - - - -
28/01:30am 12.6 NW 15 22 1014.7 - 0.2 - - 10 - - - -
28/01:00am 12.5 NW 14 18 1015.2 - 0.2 - - 10 - - - -
28/12:30am 12.6 NW 15 20 1015.4 - 0.2 - Partly cloudy 10 - - - -
28/12:00am 12.8 NW 14 21 1015.8 - 0.2 - Mostly cloudy 10 - - - -
 
Date/Time
EST
Temp

°C
Wind Pressure Rain
since 9am
mm
Weather Cloud Vis
km
Sea
Height
m
Swell
Dir
 
Speed
knots
Gust
knots
hPa Trend Height
m
Period
s
Dir
27/11:30pm 12.8 NW 14 18 1016.1 - 0.2 - Partly cloudy 10 - - - -
27/11:00pm 12.8 NW 14 20 1016.5 - 0.2 - Partly cloudy 10 - - - -
27/10:30pm 12.7 NW 13 18 1016.8 - 0.2 - Partly cloudy 10 - - - -
27/10:00pm 13.0 WNW 14 19 1017.2 - 0.2 - Partly cloudy 10 - - - -
27/09:30pm 12.8 WNW 12 16 1017.1 - 0.2 - Cloudy 10 - - - -
27/09:00pm 12.4 WNW 11 15 1017.6 - 0.2 - Partly cloudy 10 - - - -
27/08:30pm 12.4 WNW 11 15 1017.6 - 0.2 - Partly cloudy 10 - - - -
27/08:00pm 12.6 WNW 10 14 1017.7 - 0.2 - Partly cloudy 10 - - - -
27/07:30pm 12.4 WNW 11 16 1017.8 - 0.2 - - 10 - - - -
27/07:00pm 12.5 WNW 13 16 1018.0 - 0.2 - Partly cloudy 10 - - - -
27/06:30pm 12.3 WNW 15 20 1018.2 - 0.2 - Partly cloudy 10 - - - -
27/06:00pm 12.2 WNW 14 19 1018.1 - 0.2 - Mostly cloudy 10 - - - -
27/05:30pm 11.9 WNW 12 16 1017.8 - 0.2 - - 10 - - - -

Other Formats:

Comma delimited format used in spreadsheet applications
http://www.bom.gov.au/fwo/IDT60701/IDT60701.94980.axf

JavaScript Object Notation format (JSON) in row-major order
http://www.bom.gov.au/fwo/IDT60701/IDT60701.94980.json